SCP
0 0 0 -0 -0 0 0 0 0 0 0 0 0 0 0 0 0 0 0 -0 -0 -0 -0 -0 -0 -0 -0 -1 -1 -0 -0 -0 -0 0 0 0 0 0 0 0 0 0 0 0 0 0 0 0 0
0 0 -0 0 0 0 0 0 0 0 0 0 0 0 0 0 0 0 0 -0 -0 -0 -0 -0 -0 -0 -0 -0 -1 -1 -0 -0 -0 -0 -0 -0 -0 0 0 0 0 0 0 0 0 0 0 0 0
-0 0 -0 0 0 0 0 0 0 0 0 0 0 0 0 0 0 0 0 0 -0 -0 -0 -0 -0 -0 -0 -0 -0 -0 -0 -0 -0 -0 -0 -0 -0 0 0 0 0 0 0 0 0 0 0 0 0
-0 0 -0 0 0 0 0 0 0 0 0 0 0 0 0 0 0 0 0 0 -0 0 -0 -0 -0 -0 -0 -0 -0 -0 -0 -0 -0 -0 -0 -0 -0 0 0 0 0 0 0 0 0 0 0 0 0
0 0 0 0 0 0 0 0 0 0 0 0 0 0 0 0 0 0 0 0 0 0 0 -0 -0 -0 -0 -0 0 0 0 0 0 -0 0 -0 -0 -0 0 0 0 0 0 0 0 0 0 0 0
0 0 0 0 0 0 0 0 0 0 0 0 0 0 0 0 0 0 0 0 0 0 0 -0 -0 -0 -0 -0 -0 0 0 0 0 0 0 0 -0 -0 0 0 0 0 0 0 0 0 0 0 0
0 0 0 0 0 0 0 0 0 0 0 0 0 0 0 0 0 0 0 0 0 0 0 0 0 0 -0 -0 -0 -0 0 0 0 0 0 0 0 0 0 0 0 0 0 0 0 0 0 0 0
0 0 0 0 0 0 0 0 0 0 0 0 0 0 0 0 0 0 0 0 0 0 0 0 0 0 0 0 -0 -0 -0 0 0 0 0 0 0 0 0 0 0 0 0 0 0 0 0 0 0
0 0 0 0 0 0 0 0 0 0 0 0 0 0 0 0 0 0 0 0 0 0 0 0 0 0 0 0 0 0 0 0 0 0 0 0 0 0 0 0 0 0 0 0 0 0 0 0 0
0 0 0 0 0 0 0 0 0 0 0 0 0 0 0 0 0 0 0 0 0 0 0 0 0 0 0 0 0 0 0 0 0 0 0 0 0 0 0 0 0 0 0 0 0 0 0 0 0
0 0 0 0 0 0 0 0 0 0 0 0 0 0 0 0 0 0 0 0 0 0 0 0 0 0 0 0 0 0 0 0 0 0 0 0 0 0 0 0 0 0 0 0 0 0 0 0 0
0 0 0 0 0 0 0 0 0 0 0 0 0 0 0 0 0 0 0 0 0 0 0 0 0 0 0 0 0 0 0 0 0 0 0 0 0 0 0 0 0 0 0 0 0 0 0 0 0
0 0 0 0 0 0 0 0 0 0 0 0 0 0 0 0 0 0 0 0 0 0 0 0 0 0 0 0 0 0 0 0 0 0 0 0 0 0 0 0 0 0 0 0 0 0 0 0 0
0 0 0 0 0 0 0 0 0 0 0 0 0 0 0 0 0 0 0 0 0 0 0 0 0 0 0 0 0 0 0 0 0 0 0 0 0 0 0 0 0 0 0 0 0 0 0 0 0
0 0 0 0 0 0 0 0 0 0 0 0 0 0 0 0 0 0 0 0 0 0 0 0 0 0 0 0 0 0 0 0 0 0 0 0 0 0 0 0 0 0 0 0 0 0 0 0 0
0 0 0 0 0 0 0 0 0 0 0 0 0 0 0 0 0 0 0 0 0 0 0 0 0 0 0 0 0 0 0 0 0 0 0 0 0 0 0 0 0 0 0 0 0 0 0 0 0
0 0 0 0 0 0 0 0 0 0 0 0 0 0 0 0 0 0 0 0 0 0 0 0 0 0 0 0 0 0 0 0 0 0 0 0 0 0 0 0 0 0 0 0 0 0 0 0 0
0 0 0 0 0 0 0 0 0 0 0 0 0 0 0 0 0 0 0 0 0 0 0 0 0 0 0 0 0 0 0 0 0 0 0 0 0 0 0 0 0 0 0 0 0 0 0 0 0
0 0 0 0 0 0 0 0 0 0 0 0 0 0 0 0 0 0 0 0 0 0 0 0 0 0 0 0 0 0 0 0 0 0 0 0 0 0 0 0 0 0 0 0 0 0 0 0 0
0 0 0 0 0 0 0 0 0 0 0 0 0 0 0 0 0 0 0 0 0 0 0 0 0 0 0 0 0 0 0 0 0 0 0 0 0 0 0 0 0 0 0 0 0 0 0 0 0
0 0 0 0 0 0 0 0 0 0 0 0 0 0 0 0 0 0 0 0 0 0 0 0 0 0 0 0 0 0 0 0 0 0 0 0 0 0 0 0 0 0 0 0 0 0 0 0 0
0 0 0 0 0 0 0 0 -0 0 0 0 0 0 0 0 0 0 0 0 0 0 0 0 0 0 0 0 0 0 0 0 0 0 0 0 0 0 0 0 0 0 0 0 0 0 0 0 0
0 0 0 0 0 0 0 0 0 0 0 0 0 0 0 0 0 0 0 0 0 0 0 0 0 0 0 0 0 0 0 0 0 0 0 0 0 0 0 0 0 0 0 0 0 0 0 0 0
0 0 0 0 0 0 0 0 0 0 0 0 0 0 0 0 0 0 0 0 0 0 0 0 0 0 0 0 0 0 0 0 0 0 0 0 0 0 0 0 0 0 0 0 0 0 0 0 0
0 0 0 0 0 0 0 0 0 0 0 0 0 0 0 0 0 0 0 0 0 0 0 0 0 0 0 0 0 0 0 0 0 0 0 0 0 0 0 0 0 0 0 0 0 0 0 0 0
0 0 0 0 0 0 0 0 0 0 0 0 0 0 0 0 0 0 0 0 0 0 0 -0 -0 -0 -0 -0 -0 0 0 0 0 0 0 0 0 0 0 0 0 0 0 0 0 0 0 0 0
0 0 0 0 0 0 0 0 0 0 0 0 0 0 0 0 0 0 0 0 0 -0 -0 -0 -0 -0 -0 0 0 0 0 0 0 0 0 0 0 0 0 0 0 0 0 0 0 0 0 0 0
0 0 0 0 0 0 0 0 0 0 0 0 0 0 0 0 0 0 0 -0 -0 -0 -0 -0 -0 -0 -0 -0 -0 -0 0 0 0 0 0 0 0 0 0 0 0 0 0 0 0 0 0 0 0
0 0 0 0 0 0 0 0 0 0 0 0 0 0 0 -0 -0 -0 0 0 -0 -0 -0 -0 -0 -0 -0 -0 -0 -0 -0 -0 -0 -0 0 0 0 0 0 0 0 0 0 0 0 0 0 0 0
0 0 0 0 0 0 0 0 0 0 0 0 0 0 0 0 0 0 -0 -0 -0 -0 -0 0 0 0 -0 -0 -0 -0 -0 -0 -0 -0 -0 -0 -0 0 0 0 0 0 0 0 0 0 0 0 0
Wind_Speed_500mb
15 13 9 8 8 10 8 5 5 10 6 3 3 3 6 8 6 6 7 7 5 11 24 38 37 35 34 35 33 32 29 27 26 24 20 17 16 17 15 14 12 10 6 3 3 4 5 6 4
12 8 6 3 8 7 9 2 6 8 7 3 3 1 2 3 5 7 5 11 9 10 19 34 38 38 37 35 35 34 32 30 27 24 19 17 19 21 19 17 15 12 5 4 7 7 8 9 7
7 6 6 7 6 4 4 6 4 3 10 3 3 4 4 5 5 3 3 8 15 14 16 31 38 39 38 36 35 34 33 31 27 22 22 23 20 16 21 18 16 14 11 8 9 9 9 9 9
9 4 3 7 6 9 6 4 6 6 4 3 1 8 4 4 4 6 5 8 17 17 17 23 36 40 40 39 37 36 32 27 28 27 30 33 18 15 18 19 20 19 12 12 12 11 10 10 7
10 1 6 3 10 6 7 12 11 3 8 5 6 6 15 10 3 5 6 6 15 18 21 21 31 39 40 41 40 38 35 31 30 35 34 31 28 20 19 20 20 19 17 17 14 12 10 7 5
7 3 7 3 9 9 7 15 4 5 6 8 7 5 5 9 8 1 6 4 12 20 20 23 26 34 40 41 41 41 38 35 33 33 33 31 30 23 19 21 20 20 20 20 15 13 11 9 7
2 6 6 6 9 11 4 9 6 3 12 5 3 1 7 11 12 6 6 7 10 19 24 26 28 32 38 41 41 41 40 38 35 37 34 32 31 29 23 24 23 23 22 20 16 14 12 11 10
4 7 7 7 6 10 11 8 2 2 8 11 1 5 6 11 14 15 17 18 16 20 25 27 30 34 39 44 44 43 41 40 39 41 40 37 35 32 28 26 24 24 24 21 19 17 15 14 13
1 7 5 8 11 12 11 11 4 5 17 30 17 32 36 41 29 27 29 28 26 26 30 32 32 35 38 43 45 47 45 43 43 45 46 43 41 37 29 28 27 26 26 23 21 19 18 17 16
7 7 11 5 2 6 20 11 22 11 29 52 39 31 20 27 44 37 37 35 32 34 36 38 36 35 37 42 47 49 50 49 48 51 50 47 45 41 34 33 33 31 30 27 24 23 23 22 21
10 10 8 25 34 23 15 28 16 16 12 52 50 31 40 43 31 40 45 44 46 38 37 38 40 40 39 41 43 50 52 54 55 54 53 51 50 47 43 39 38 36 34 31 29 27 28 27 26
6 25 31 20 30 15 16 16 23 21 50 47 56 49 43 45 48 50 47 49 47 42 37 37 37 39 43 43 44 44 49 53 56 56 55 55 54 52 50 46 41 39 36 33 33 31 34 31 29
10 8 11 24 35 44 41 26 27 47 49 28 32 30 33 28 35 40 42 42 37 40 37 37 41 42 39 45 48 48 47 48 49 54 58 60 60 57 54 52 47 42 40 37 37 37 38 36 35
10 11 23 32 53 43 22 17 8 37 28 26 24 32 27 31 42 45 42 41 39 33 32 35 40 42 42 40 47 52 52 50 49 50 52 55 54 52 53 53 51 47 44 42 41 40 41 40 40
10 10 16 31 26 17 16 12 17 31 17 34 39 43 56 48 42 31 22 34 45 38 29 27 29 36 40 40 39 48 52 55 55 53 51 52 51 51 52 53 54 51 49 48 46 43 45 46 46
7 2 6 11 6 1 5 14 18 25 33 46 61 53 42 24 20 19 16 17 16 22 23 16 15 22 32 36 36 39 47 51 49 49 50 50 50 51 53 53 54 54 55 55 53 51 50 51 52
4 6 10 15 5 5 8 12 30 36 44 51 49 43 20 26 29 23 15 12 10 10 14 19 14 11 17 27 31 31 37 41 37 42 48 51 49 47 48 51 52 53 57 61 59 58 56 56 57
9 6 7 8 11 4 11 19 15 41 52 36 38 23 27 36 38 33 25 14 8 10 13 21 22 18 12 17 23 26 28 29 34 38 41 43 45 46 50 50 53 56 60 64 65 63 61 61 58
7 8 8 12 17 9 14 14 19 54 39 37 17 52 49 50 42 38 38 33 25 21 17 15 9 10 11 13 16 18 23 27 28 30 35 39 44 46 52 53 52 56 61 64 65 66 66 67 64
9 6 11 9 7 9 14 21 32 30 11 5 58 45 48 48 48 48 46 46 50 47 38 29 25 20 17 14 13 8 7 8 12 20 25 28 32 39 46 50 51 52 57 62 66 67 70 69 69
6 10 7 14 6 10 8 13 16 18 48 60 56 51 48 50 51 49 50 51 50 52 50 45 39 32 26 20 14 12 10 5 2 6 14 20 21 24 30 37 43 47 51 57 62 66 69 72 74
11 11 12 7 5 6 5 10 15 17 21 28 34 51 48 47 49 48 49 51 53 53 49 48 46 43 41 34 31 29 25 21 19 17 17 17 19 18 23 27 30 38 45 52 54 57 64 69 76
11 6 4 5 6 4 9 4 13 18 10 13 23 44 44 42 43 43 43 42 41 40 40 38 35 32 30 28 26 22 20 20 20 21 23 23 24 27 22 21 33 36 39 47 53 57 61 68 74
8 4 7 4 8 1 11 12 7 11 16 14 25 39 40 37 35 35 35 33 35 33 31 30 27 26 23 21 18 18 20 20 19 20 22 24 26 26 29 31 29 30 37 38 44 54 64 68 74
8 8 5 6 1 10 7 5 15 7 17 27 31 43 35 31 29 28 30 32 34 34 32 29 27 26 25 25 25 25 24 24 28 31 33 34 32 26 22 24 31 37 39 38 41 45 54 63 76
9 12 8 10 6 8 11 7 7 19 49 53 48 41 32 27 22 24 25 27 28 28 27 27 28 26 26 24 23 24 25 27 29 31 35 39 40 41 40 34 27 27 32 40 42 45 51 57 67
7 7 5 4 3 6 7 5 8 13 23 37 41 33 25 19 13 12 14 17 19 18 19 20 19 20 21 23 26 25 24 26 28 30 33 36 41 45 47 45 41 38 36 35 39 47 50 57 64
5 2 4 5 1 7 6 8 9 15 20 17 19 26 21 12 5 2 4 6 8 11 14 17 22 25 26 28 28 29 29 30 33 34 35 38 42 46 50 53 52 48 43 42 42 45 50 57 61
2 1 4 3 7 8 3 10 4 20 23 19 24 24 18 14 13 10 3 3 6 9 16 19 25 29 35 36 37 42 43 43 41 40 40 42 45 46 49 54 56 55 55 51 47 47 50 54 62
8 10 11 7 9 3 3 13 12 21 29 32 29 27 19 11 15 10 3 3 9 14 21 26 31 36 42 46 49 50 51 53 53 53 53 53 53 52 54 54 55 55 58 59 56 57 56 56 57
Wind_Direction_500mb
324 317 319 2 49 64 296 282 83 36 51 66 13 40 216 233 206 211 162 202 219 192 191 192 192 194 195 193 190 187 188 189 189 189 191 200 201 197 206 207 219 249 222 225 319 338 353 337 309
345 356 9 11 85 69 279 129 132 155 149 345 286 221 314 276 114 144 171 182 221 213 201 197 196 197 199 200 198 199 199 196 187 197 200 197 190 187 193 196 210 243 247 257 290 308 321 306 289
35 10 10 98 119 161 183 20 107 143 144 91 333 259 281 131 119 227 213 190 217 222 213 201 201 203 205 205 205 206 212 191 193 198 196 201 209 216 219 226 243 253 267 267 280 292 298 286 275
40 44 264 84 249 272 119 13 57 28 83 103 169 299 241 233 273 275 300 205 221 221 216 206 206 205 207 210 211 211 216 205 194 195 207 223 239 215 226 234 245 257 262 266 277 286 288 285 268
26 27 43 346 280 249 93 86 44 1 304 195 167 283 315 222 239 314 319 244 227 228 221 214 213 212 212 212 213 215 215 213 203 208 217 232 248 233 231 233 235 250 261 267 270 272 273 253 210
353 356 42 273 282 300 91 118 76 323 284 175 196 279 278 205 186 247 339 314 225 231 233 227 218 217 217 217 215 215 216 215 217 222 221 225 241 261 241 234 239 249 255 260 259 256 245 218 199
53 73 229 281 276 330 116 102 91 4 346 344 325 4 304 215 222 235 310 318 262 239 237 236 230 224 221 223 219 217 217 217 219 223 224 233 247 261 249 237 241 246 252 255 254 251 230 210 205
335 96 299 280 293 274 169 129 184 318 280 312 194 242 264 308 277 265 289 297 273 254 255 246 238 231 226 222 222 220 219 220 219 226 228 236 246 258 258 240 242 246 247 250 250 240 222 218 217
308 59 259 256 12 316 17 17 11 302 280 287 277 276 284 286 271 272 285 282 271 253 252 256 250 238 232 226 225 223 219 220 225 228 233 240 248 258 272 257 253 250 248 249 246 234 225 224 225
130 129 236 169 98 308 315 357 335 328 309 290 286 290 312 311 267 278 287 290 274 265 256 254 253 247 235 230 228 227 226 224 226 231 234 239 248 258 268 264 253 250 250 250 244 233 228 231 232
190 200 215 303 324 320 308 316 325 333 287 277 288 298 301 306 287 278 278 281 289 284 260 258 257 254 246 236 233 231 231 230 233 234 236 240 248 256 264 267 260 253 251 250 247 238 235 234 237
218 236 248 273 308 310 294 295 301 272 271 289 286 290 290 289 290 287 283 283 282 286 287 267 266 257 252 248 241 234 232 233 234 236 239 243 250 257 263 265 260 256 253 250 248 240 239 241 241
213 240 307 299 293 285 288 275 271 277 306 313 304 288 299 294 293 298 283 275 283 273 276 272 263 265 258 248 247 245 241 236 237 239 245 249 251 257 263 266 263 258 255 252 250 243 241 242 245
303 315 301 297 285 277 250 273 271 282 333 326 291 295 312 319 318 310 285 274 266 278 275 271 261 262 266 260 247 245 246 249 245 244 249 253 257 259 261 263 261 258 257 255 253 249 245 244 245
302 322 307 267 273 224 233 312 231 281 287 317 302 308 315 321 319 317 289 269 257 257 263 262 270 255 261 268 263 248 243 247 254 257 259 260 261 261 264 263 259 261 261 258 256 252 246 243 244
301 4 320 286 189 167 109 259 272 300 286 302 297 312 326 46 77 81 84 96 212 233 218 229 253 260 255 261 267 259 248 247 251 255 259 262 265 267 267 264 260 263 260 257 256 255 252 250 249
297 228 212 312 325 144 169 245 256 291 285 283 301 315 12 83 82 78 87 109 137 152 169 166 192 233 252 251 254 261 255 252 249 251 257 266 270 272 272 271 270 267 264 261 259 257 256 255 252
223 237 294 248 286 250 255 247 276 284 286 288 309 36 97 94 75 73 74 77 106 124 144 150 157 167 201 226 236 244 249 253 253 254 257 264 274 275 277 275 274 271 265 262 261 260 259 258 254
288 243 254 273 281 331 281 297 283 277 280 288 85 104 97 85 78 77 78 80 92 107 121 131 166 148 181 186 202 221 235 249 259 262 265 269 269 270 275 277 276 273 270 269 267 265 260 257 253
227 253 269 276 317 348 295 303 281 302 338 301 116 99 96 92 82 76 76 77 77 78 84 89 89 91 101 107 109 139 184 226 258 265 272 272 271 272 276 278 279 279 278 274 270 266 263 260 252
274 230 220 243 292 285 303 282 267 65 78 83 92 100 92 89 86 79 76 72 74 75 73 73 72 73 75 73 77 79 82 78 30 275 274 282 276 281 282 278 278 278 277 277 276 273 268 264 257
257 240 195 225 82 225 58 288 291 108 79 76 81 89 88 85 84 79 73 69 66 65 65 65 66 65 64 61 56 45 38 25 10 343 326 307 291 285 295 302 293 286 282 278 277 276 273 269 262
217 71 195 191 206 33 291 112 296 108 113 117 103 98 95 92 87 81 74 68 63 58 53 51 48 46 40 32 27 24 20 15 357 338 326 315 305 293 285 290 299 296 291 284 281 278 273 271 266
143 69 285 129 127 248 246 162 249 184 184 150 126 109 104 95 87 77 70 66 61 52 44 37 34 30 23 15 12 6 1 354 344 342 338 336 326 310 294 289 280 282 290 287 283 282 277 273 270
87 73 317 358 18 216 192 141 239 317 124 130 118 109 100 90 78 68 58 47 36 27 23 21 20 19 17 13 8 6 1 355 351 348 344 340 337 334 323 305 292 286 281 274 278 279 277 275 271
173 172 154 230 235 254 347 264 360 66 96 107 111 108 100 88 69 53 38 29 23 18 16 14 15 15 10 3 3 2 358 355 352 346 343 340 336 333 328 323 321 306 293 281 275 270 274 275 271
192 185 187 154 94 56 215 103 94 98 97 108 115 119 116 104 82 47 22 10 10 13 14 11 16 13 8 4 358 357 355 349 345 341 337 331 328 327 327 325 321 318 315 302 283 276 272 274 274
128 200 35 6 233 254 268 248 201 178 151 138 131 128 127 124 114 36 355 351 360 16 25 20 18 16 14 8 0 357 351 343 337 333 325 320 318 318 318 319 321 321 318 314 309 299 283 273 271
13 231 217 201 168 188 259 253 231 164 153 149 157 164 177 195 189 184 192 311 327 2 15 14 11 4 1 355 350 351 346 340 337 330 324 320 316 315 312 311 312 315 318 317 316 312 305 294 282
199 218 179 169 262 254 148 263 107 130 149 163 180 199 212 207 178 177 243 272 324 343 346 345 347 349 347 343 343 340 334 330 328 324 322 319 316 313 312 311 309 309 308 309 312 312 311 306 299
Wind_Speed_850mb
15 13 9 8 8 10 8 5 5 10 6 3 3 3 6 8 6 6 7 7 5 11 24 38 37 35 34 35 33 32 29 27 26 24 20 17 16 17 15 14 12 10 6 3 3 4 5 6 4
12 8 6 3 8 7 9 2 6 8 7 3 3 1 2 3 5 7 5 11 9 10 19 34 38 38 37 35 35 34 32 30 27 24 19 17 19 21 19 17 15 12 5 4 7 7 8 9 7
7 6 6 7 6 4 4 6 4 3 10 3 3 4 4 5 5 3 3 8 15 14 16 31 38 39 38 36 35 34 33 31 27 22 22 23 20 16 21 18 16 14 11 8 9 9 9 9 9
9 4 3 7 6 9 6 4 6 6 4 3 1 8 4 4 4 6 5 8 17 17 17 23 36 40 40 39 37 36 32 27 28 27 30 33 18 15 18 19 20 19 12 12 12 11 10 10 7
10 1 6 3 10 6 7 12 11 3 8 5 6 6 15 10 3 5 6 6 15 18 21 21 31 39 40 41 40 38 35 31 30 35 34 31 28 20 19 20 20 19 17 17 14 12 10 7 5
7 3 7 3 9 9 7 15 4 5 6 8 7 5 5 9 8 1 6 4 12 20 20 23 26 34 40 41 41 41 38 35 33 33 33 31 30 23 19 21 20 20 20 20 15 13 11 9 7
2 6 6 6 9 11 4 9 6 3 12 5 3 1 7 11 12 6 6 7 10 19 24 26 28 32 38 41 41 41 40 38 35 37 34 32 31 29 23 24 23 23 22 20 16 14 12 11 10
4 7 7 7 6 10 11 8 2 2 8 11 1 5 6 11 14 15 17 18 16 20 25 27 30 34 39 44 44 43 41 40 39 41 40 37 35 32 28 26 24 24 24 21 19 17 15 14 13
1 7 5 8 11 12 11 11 4 5 17 30 17 32 36 41 29 27 29 28 26 26 30 32 32 35 38 43 45 47 45 43 43 45 46 43 41 37 29 28 27 26 26 23 21 19 18 17 16
7 7 11 5 2 6 20 11 22 11 29 52 39 31 20 27 44 37 37 35 32 34 36 38 36 35 37 42 47 49 50 49 48 51 50 47 45 41 34 33 33 31 30 27 24 23 23 22 21
10 10 8 25 34 23 15 28 16 16 12 52 50 31 40 43 31 40 45 44 46 38 37 38 40 40 39 41 43 50 52 54 55 54 53 51 50 47 43 39 38 36 34 31 29 27 28 27 26
6 25 31 20 30 15 16 16 23 21 50 47 56 49 43 45 48 50 47 49 47 42 37 37 37 39 43 43 44 44 49 53 56 56 55 55 54 52 50 46 41 39 36 33 33 31 34 31 29
10 8 11 24 35 44 41 26 27 47 49 28 32 30 33 28 35 40 42 42 37 40 37 37 41 42 39 45 48 48 47 48 49 54 58 60 60 57 54 52 47 42 40 37 37 37 38 36 35
10 11 23 32 53 43 22 17 8 37 28 26 24 32 27 31 42 45 42 41 39 33 32 35 40 42 42 40 47 52 52 50 49 50 52 55 54 52 53 53 51 47 44 42 41 40 41 40 40
10 10 16 31 26 17 16 12 17 31 17 34 39 43 56 48 42 31 22 34 45 38 29 27 29 36 40 40 39 48 52 55 55 53 51 52 51 51 52 53 54 51 49 48 46 43 45 46 46
7 2 6 11 6 1 5 14 18 25 33 46 61 53 42 24 20 19 16 17 16 22 23 16 15 22 32 36 36 39 47 51 49 49 50 50 50 51 53 53 54 54 55 55 53 51 50 51 52
4 6 10 15 5 5 8 12 30 36 44 51 49 43 20 26 29 23 15 12 10 10 14 19 14 11 17 27 31 31 37 41 37 42 48 51 49 47 48 51 52 53 57 61 59 58 56 56 57
9 6 7 8 11 4 11 19 15 41 52 36 38 23 27 36 38 33 25 14 8 10 13 21 22 18 12 17 23 26 28 29 34 38 41 43 45 46 50 50 53 56 60 64 65 63 61 61 58
7 8 8 12 17 9 14 14 19 54 39 37 17 52 49 50 42 38 38 33 25 21 17 15 9 10 11 13 16 18 23 27 28 30 35 39 44 46 52 53 52 56 61 64 65 66 66 67 64
9 6 11 9 7 9 14 21 32 30 11 5 58 45 48 48 48 48 46 46 50 47 38 29 25 20 17 14 13 8 7 8 12 20 25 28 32 39 46 50 51 52 57 62 66 67 70 69 69
6 10 7 14 6 10 8 13 16 18 48 60 56 51 48 50 51 49 50 51 50 52 50 45 39 32 26 20 14 12 10 5 2 6 14 20 21 24 30 37 43 47 51 57 62 66 69 72 74
11 11 12 7 5 6 5 10 15 17 21 28 34 51 48 47 49 48 49 51 53 53 49 48 46 43 41 34 31 29 25 21 19 17 17 17 19 18 23 27 30 38 45 52 54 57 64 69 76
11 6 4 5 6 4 9 4 13 18 10 13 23 44 44 42 43 43 43 42 41 40 40 38 35 32 30 28 26 22 20 20 20 21 23 23 24 27 22 21 33 36 39 47 53 57 61 68 74
8 4 7 4 8 1 11 12 7 11 16 14 25 39 40 37 35 35 35 33 35 33 31 30 27 26 23 21 18 18 20 20 19 20 22 24 26 26 29 31 29 30 37 38 44 54 64 68 74
8 8 5 6 1 10 7 5 15 7 17 27 31 43 35 31 29 28 30 32 34 34 32 29 27 26 25 25 25 25 24 24 28 31 33 34 32 26 22 24 31 37 39 38 41 45 54 63 76
9 12 8 10 6 8 11 7 7 19 49 53 48 41 32 27 22 24 25 27 28 28 27 27 28 26 26 24 23 24 25 27 29 31 35 39 40 41 40 34 27 27 32 40 42 45 51 57 67
7 7 5 4 3 6 7 5 8 13 23 37 41 33 25 19 13 12 14 17 19 18 19 20 19 20 21 23 26 25 24 26 28 30 33 36 41 45 47 45 41 38 36 35 39 47 50 57 64
5 2 4 5 1 7 6 8 9 15 20 17 19 26 21 12 5 2 4 6 8 11 14 17 22 25 26 28 28 29 29 30 33 34 35 38 42 46 50 53 52 48 43 42 42 45 50 57 61
2 1 4 3 7 8 3 10 4 20 23 19 24 24 18 14 13 10 3 3 6 9 16 19 25 29 35 36 37 42 43 43 41 40 40 42 45 46 49 54 56 55 55 51 47 47 50 54 62
8 10 11 7 9 3 3 13 12 21 29 32 29 27 19 11 15 10 3 3 9 14 21 26 31 36 42 46 49 50 51 53 53 53 53 53 53 52 54 54 55 55 58 59 56 57 56 56 57
Wind_Direction_850mb
324 317 319 2 49 64 296 282 83 36 51 66 13 40 216 233 206 211 162 202 219 192 191 192 192 194 195 193 190 187 188 189 189 189 191 200 201 197 206 207 219 249 222 225 319 338 353 337 309
345 356 9 11 85 69 279 129 132 155 149 345 286 221 314 276 114 144 171 182 221 213 201 197 196 197 199 200 198 199 199 196 187 197 200 197 190 187 193 196 210 243 247 257 290 308 321 306 289
35 10 10 98 119 161 183 20 107 143 144 91 333 259 281 131 119 227 213 190 217 222 213 201 201 203 205 205 205 206 212 191 193 198 196 201 209 216 219 226 243 253 267 267 280 292 298 286 275
40 44 264 84 249 272 119 13 57 28 83 103 169 299 241 233 273 275 300 205 221 221 216 206 206 205 207 210 211 211 216 205 194 195 207 223 239 215 226 234 245 257 262 266 277 286 288 285 268
26 27 43 346 280 249 93 86 44 1 304 195 167 283 315 222 239 314 319 244 227 228 221 214 213 212 212 212 213 215 215 213 203 208 217 232 248 233 231 233 235 250 261 267 270 272 273 253 210
353 356 42 273 282 300 91 118 76 323 284 175 196 279 278 205 186 247 339 314 225 231 233 227 218 217 217 217 215 215 216 215 217 222 221 225 241 261 241 234 239 249 255 260 259 256 245 218 199
53 73 229 281 276 330 116 102 91 4 346 344 325 4 304 215 222 235 310 318 262 239 237 236 230 224 221 223 219 217 217 217 219 223 224 233 247 261 249 237 241 246 252 255 254 251 230 210 205
335 96 299 280 293 274 169 129 184 318 280 312 194 242 264 308 277 265 289 297 273 254 255 246 238 231 226 222 222 220 219 220 219 226 228 236 246 258 258 240 242 246 247 250 250 240 222 218 217
308 59 259 256 12 316 17 17 11 302 280 287 277 276 284 286 271 272 285 282 271 253 252 256 250 238 232 226 225 223 219 220 225 228 233 240 248 258 272 257 253 250 248 249 246 234 225 224 225
130 129 236 169 98 308 315 357 335 328 309 290 286 290 312 311 267 278 287 290 274 265 256 254 253 247 235 230 228 227 226 224 226 231 234 239 248 258 268 264 253 250 250 250 244 233 228 231 232
190 200 215 303 324 320 308 316 325 333 287 277 288 298 301 306 287 278 278 281 289 284 260 258 257 254 246 236 233 231 231 230 233 234 236 240 248 256 264 267 260 253 251 250 247 238 235 234 237
218 236 248 273 308 310 294 295 301 272 271 289 286 290 290 289 290 287 283 283 282 286 287 267 266 257 252 248 241 234 232 233 234 236 239 243 250 257 263 265 260 256 253 250 248 240 239 241 241
213 240 307 299 293 285 288 275 271 277 306 313 304 288 299 294 293 298 283 275 283 273 276 272 263 265 258 248 247 245 241 236 237 239 245 249 251 257 263 266 263 258 255 252 250 243 241 242 245
303 315 301 297 285 277 250 273 271 282 333 326 291 295 312 319 318 310 285 274 266 278 275 271 261 262 266 260 247 245 246 249 245 244 249 253 257 259 261 263 261 258 257 255 253 249 245 244 245
302 322 307 267 273 224 233 312 231 281 287 317 302 308 315 321 319 317 289 269 257 257 263 262 270 255 261 268 263 248 243 247 254 257 259 260 261 261 264 263 259 261 261 258 256 252 246 243 244
301 4 320 286 189 167 109 259 272 300 286 302 297 312 326 46 77 81 84 96 212 233 218 229 253 260 255 261 267 259 248 247 251 255 259 262 265 267 267 264 260 263 260 257 256 255 252 250 249
297 228 212 312 325 144 169 245 256 291 285 283 301 315 12 83 82 78 87 109 137 152 169 166 192 233 252 251 254 261 255 252 249 251 257 266 270 272 272 271 270 267 264 261 259 257 256 255 252
223 237 294 248 286 250 255 247 276 284 286 288 309 36 97 94 75 73 74 77 106 124 144 150 157 167 201 226 236 244 249 253 253 254 257 264 274 275 277 275 274 271 265 262 261 260 259 258 254
288 243 254 273 281 331 281 297 283 277 280 288 85 104 97 85 78 77 78 80 92 107 121 131 166 148 181 186 202 221 235 249 259 262 265 269 269 270 275 277 276 273 270 269 267 265 260 257 253
227 253 269 276 317 348 295 303 281 302 338 301 116 99 96 92 82 76 76 77 77 78 84 89 89 91 101 107 109 139 184 226 258 265 272 272 271 272 276 278 279 279 278 274 270 266 263 260 252
274 230 220 243 292 285 303 282 267 65 78 83 92 100 92 89 86 79 76 72 74 75 73 73 72 73 75 73 77 79 82 78 30 275 274 282 276 281 282 278 278 278 277 277 276 273 268 264 257
257 240 195 225 82 225 58 288 291 108 79 76 81 89 88 85 84 79 73 69 66 65 65 65 66 65 64 61 56 45 38 25 10 343 326 307 291 285 295 302 293 286 282 278 277 276 273 269 262
217 71 195 191 206 33 291 112 296 108 113 117 103 98 95 92 87 81 74 68 63 58 53 51 48 46 40 32 27 24 20 15 357 338 326 315 305 293 285 290 299 296 291 284 281 278 273 271 266
143 69 285 129 127 248 246 162 249 184 184 150 126 109 104 95 87 77 70 66 61 52 44 37 34 30 23 15 12 6 1 354 344 342 338 336 326 310 294 289 280 282 290 287 283 282 277 273 270
87 73 317 358 18 216 192 141 239 317 124 130 118 109 100 90 78 68 58 47 36 27 23 21 20 19 17 13 8 6 1 355 351 348 344 340 337 334 323 305 292 286 281 274 278 279 277 275 271
173 172 154 230 235 254 347 264 360 66 96 107 111 108 100 88 69 53 38 29 23 18 16 14 15 15 10 3 3 2 358 355 352 346 343 340 336 333 328 323 321 306 293 281 275 270 274 275 271
192 185 187 154 94 56 215 103 94 98 97 108 115 119 116 104 82 47 22 10 10 13 14 11 16 13 8 4 358 357 355 349 345 341 337 331 328 327 327 325 321 318 315 302 283 276 272 274 274
128 200 35 6 233 254 268 248 201 178 151 138 131 128 127 124 114 36 355 351 360 16 25 20 18 16 14 8 0 357 351 343 337 333 325 320 318 318 318 319 321 321 318 314 309 299 283 273 271
13 231 217 201 168 188 259 253 231 164 153 149 157 164 177 195 189 184 192 311 327 2 15 14 11 4 1 355 350 351 346 340 337 330 324 320 316 315 312 311 312 315 318 317 316 312 305 294 282
199 218 179 169 262 254 148 263 107 130 149 163 180 199 212 207 178 177 243 272 324 343 346 345 347 349 347 343 343 340 334 330 328 324 322 319 316 313 312 311 309 309 308 309 312 312 311 306 299